Regional Weather Roundup
Issued by NWS

Home | Current Version | Previous Version | Graphics & Text | Print | Product List | Glossary On
Versions: 1 2 3 4 5 6 7 8 9 10 11 12 13 14 15 16 17 18 19 20 21 22 23 24 25 26 27 28 29 30 31 32 33 34 35 36 37 38 39 40 41 42 43 44 45 46 47 48 49 50
000
ASUS45 KTFX 162019
RWRMT
MONTANA HOURLY WEATHER ROUNDUP
NATIONAL WEATHER SERVICE GREAT FALLS MT
219 PM MDT WED APR 16 2014

NOTE: "FAIR" INDICATES FEW OR NO CLOUDS BELOW 12000 FEET WITH NO
SIGNIFICANT WEATHER AND/OR OBSTRUCTIONS TO VISIBILITY.

* THESE STATIONS ARE NOT UNDER NWS QUALITY CONTROL. THEY DO NOT
   REPORT WEATHER SUCH AS PRECIPITATION OR FOG.

MTZ001>007-043-162100-
WEST OF THE DIVIDE
CITY           SKY/WX    TMP DP  RH WIND       PRES   REMARKS
KALISPELL      CLOUDY    48  30  50 S8G20     29.96S
MISSOULA       LGT RAIN  46  30  54 N7G17     30.03S
BUTTE          CLOUDY    41  16  36 VRB6      29.98S
MULLAN PASS    LGT SNOW  30  28  92 SW6       29.97S VSB 3/4  WCI  24
* ESSEX        N/A       40  30  68 SE4G15     N/A
* LINCOLN      N/A       42  26  53 W5G12      N/A
* LOOKOUT PASS N/A       36  30  79 N2         N/A
* POLSON       N/A       47  31  54 W3G11      N/A
* SEELEY LAKE  N/A       42  29  60 W6G13      N/A
* THOMP F APT  PTSUNNY   43  11  27 E6G18      N/A
$$

MTZ008-052>055-162100-
SOUTHWEST MONTANA
CITY           SKY/WX    TMP DP  RH WIND       PRES   REMARKS
BOZEMAN        CLOUDY    45  19  35 VRB3      29.97F
DILLON         CLOUDY    45  10  24 SW7       29.96F
W YELLOWSTONE  N/A       49  18  29 SW5G12     N/A
* THREE FORKS  CLOUDY    48  18  30 SW8        N/A
* BOULDER HILL N/A       37  19  48 NE6        N/A   WCI  32
* MONIDA PASS  N/A       38   6  26 W8G18      N/A   WCI  32
* RAYNOLDS PAS N/A       37  26  64 SW9        N/A   WCI  30
* WHITEHALL    N/A       50  17  27 SW8G16     N/A
* WISE RIVER   N/A       43  14  31 W7G14      N/A
$$

MTZ009>010-012-014-046-048-049-054-162100-
EAST SLOPES AND CENTRAL MONTANA
CITY           SKY/WX    TMP DP  RH WIND       PRES   REMARKS
CUT BANK       CLOUDY    30  28  92 E6        30.00S WCI  24
GREAT FALLS    CLOUDY    45  28  51 VRB3      29.97S
HELENA         CLOUDY    50  21  32 W12       29.96S
MALMSTROM AFB  CLOUDY    45  32  60 VRB3      29.96S
* CONRAD       PTSUNNY   37  36  96 W7         N/A   WCI  32
* DEARBORN     N/A       39  33  79 NW5G12     N/A   WCI  35
* EAST GLACIER N/A       28  25  89 SE7        N/A   WCI  21
* MONARCH      N/A       39  22  51 SE2        N/A
* PENDROY      N/A       32  30  92 N11        N/A   WCI  23
* ROGERS PASS  N/A       40  19  43 E5G24      N/A   WCI  36
* SAINT MARY   N/A       38  28  67 NW4        N/A
* SWEET GRASS  N/A       29  29 100 NE8        N/A   WCI  21
* WHITE SULPH  N/A       41  22  47 NW10G23    N/A
$$

MTZ011-013-016-021-035-040-045-047-050-051-162100-
NORTH CENTRAL MONTANA
CITY           SKY/WX    TMP DP  RH WIND       PRES   REMARKS
HAVRE          CLOUDY    43  28  56 SE6       30.04S
LEWISTOWN      PTSUNNY   43  27  53 NW13      29.97S
* CHINOOK      PTCLDY    43  25  49 CALM      30.06S
* FORT BENTON  PTSUNNY   43  30  60 E3        30.02S
* CHESTER      N/A       34  31  89 NE5G10     N/A   WCI  29
* DENTON       N/A       42  29  60 NE5G12     N/A
* GEYSER       N/A       42  31  65 VRB4G9     N/A
* JUDITH GAP   N/A       36  32  85 N/A        N/A
* LOMA         N/A       41  30  65 NE11G16    N/A
$$

MTZ017>020-022>027-061-062-162100-
NORTHEAST MONTANA
CITY           SKY/WX    TMP DP  RH WIND       PRES   REMARKS
GLASGOW        CLOUDY    36  21  54 SE9       30.11R WCI  29
GLENDIVE       CLOUDY    30  21  69 NE8       30.12R WCI  22
JORDAN         PTSUNNY   37  21  52 E7        30.07S WCI  32
SIDNEY         CLOUDY    32  21  64 E8        30.17R WCI  25
WOLF POINT     CLOUDY    34  19  54 E13       30.16R WCI  25
* BEAVER HILL  N/A       29  20  69 N8         N/A   WCI  21
* CIRCLE       N/A       31  23  72 E5G10      N/A   WCI  26
* LINDSAY DVD  N/A       28  21  75 NE6        N/A   WCI  21
* NAVAJO       N/A       27  17  66 E12        N/A   WCI  16
* SACO         N/A       39  21  48 NE9        N/A   WCI  33
$$

MTZ028>042-056>058-162100-
SOUTHCENTRAL AND SOUTHEAST MONTANA
CITY           SKY/WX    TMP DP  RH WIND       PRES   REMARKS
BAKER          PTSUNNY   37  21  52 NE8       30.06R WCI  31
BILLINGS       PTCLDY    39  34  82 SE3       30.01S
LIVINGSTON     PTCLDY    48  21  34 W10G23    29.96S
MILES CITY     CLOUDY    36  27  70 NE7       30.07R WCI  30
* LAUREL APT   PTCLDY    41  30  65 N7         N/A
* ROUNDUP APT  PTCLDY    41  28  60 E6         N/A
* HYSHAM       N/A       39  23  53 E6G11      N/A   WCI  35
* LAME DEER    N/A       35  23  62 VRB4G11    N/A
* REED POINT   N/A       50  21  32 W12G22     N/A
* ROSCOE HILL  N/A       46   7  20 NW6G17     N/A
$$

REGIONAL REPORTS...DAKOTAS
CITY           SKY/WX    TMP DP  RH WIND       PRES   REMARKS
WILLISTON      CLOUDY    28  21  75 E14       30.18R WCI  17
DICKINSON      CLOUDY    28  21  75 NE9       30.09R WCI  19
CROSBY         N/A       27  25  92 E16       30.23R WCI  15
TIOGA          N/A       25  25 100 E15       30.21R WCI  13
WATFORD CITY   CLOUDY    27  19  72 E10       30.15R WCI  18
BISMARCK       CLOUDY    34  19  54 NE15      30.14R WCI  24
GRAND FORKS    SUNNY     41  10  28 NE18G26   30.11R
FARGO          CLOUDY    36  25  64 NE16      30.09R WCI  26
BUFFALO SD     SUNNY     37  23  57 NE15G24   29.98R WCI  28
RAPID CITY     PTSUNNY   45  28  51 N16G24    29.99R
$$

REGIONAL REPORTS...WYOMING/IDAHO/WASHINGTON
CITY           SKY/WX    TMP DP  RH WIND       PRES   REMARKS
GILLETTE       PTCLDY    46  25  44 NW12G21   29.96S
SHERIDAN       CLOUDY    43  28  56 N15       29.98F
CODY           PTSUNNY   46  27  48 NE16G23   29.95F
YELLOWSTONE LA PTCLDY    32  19  59 VRB5      29.99F WCI  27
SALMON         PTSUNNY   50  16  26 NE3       29.97F
MULLAN PASS    LGT SNOW  30  28  92 SW6       29.97S VSB 3/4  WCI  24
SAND POINT     CLOUDY    46  36  68 SE9       30.02F
SPOKANE        LGT RAIN  45  39  80 SW13      30.03S
$$

REGIONAL REPORTS...ALBERTA
CITY           SKY/WX    TMP DP  RH WIND       PRES   REMARKS
CALGARY        LGT SNOW  30  27  89 SE13      29.99S VSB 3/4  WCI  20
LETHBRIDGE     CLOUDY    32  27  82 SE9       30.03F WCI  24
MEDICINE HAT   PTSUNNY   39  23  53 E5        30.07F WCI  35
EDMONTON       PTSUNNY   34  21  59 SE14      30.08F WCI  24
WATERTON GATE  N/A       34  28  79 NE7        N/A   WCI  28
CARDSTON       N/A       36  30  79 SE9        N/A   WCI  29
MILK RIVER     N/A       32  27  82 E7         N/A   WCI  25
$$

REGIONAL REPORTS...SASKATCHEWAN
CITY           SKY/WX    TMP DP  RH WIND       PRES   REMARKS
SWIFT CURRENT  LGT SNOW  27  23  85 SE14G20   30.12R WCI  16
MOOSE JAW      CLOUDY    28  16  61 SE15      30.24R WCI  16
REGINA         LGT SNOW  30  19  64 SE13G20   30.25R WCI  20
VAL MARIE      N/A       34  21  59 SE8        N/A   WCI  27
ASSINIBOIA     N/A       28  18  66 SE10       N/A   WCI  19
CORONACH       N/A       28  18  66 E9         N/A   WCI  19

$$




USA.gov is the U.S. government's official web portal to all federal, state and local government web resources and services.